Theta_e
321 319 324 329 332 334 334 335 333 331 333 340 344 346 345 345 344 343 343 341 340 339 337 335 334 332 332 331 330 330 329 328 327 326 325 327 329 328 331 330 330 330 330
320 319 326 329 332 333 334 334 331 332 338 340 344 345 345 345 343 343 341 340 339 337 334 333 332 332 331 330 330 330 330 328 326 327 325 327 327 329 329 329 328 328 329
321 324 328 330 333 334 334 333 333 337 339 343 345 345 345 342 343 342 341 339 336 333 333 332 332 331 330 331 331 331 330 328 327 326 325 325 326 328 327 328 328 327 328
323 326 330 332 334 334 333 334 337 339 341 344 344 345 342 342 342 341 338 334 333 333 333 332 331 331 330 330 330 329 329 328 327 326 325 325 325 326 326 327 326 326 327
326 329 332 334 335 335 338 339 339 340 343 344 343 342 342 342 341 337 334 333 333 333 332 331 330 330 330 330 330 328 328 327 327 326 326 325 325 326 325 325 324 324 325
335 334 336 337 339 340 341 341 342 342 342 342 342 342 341 342 339 335 333 332 333 332 331 330 330 330 329 328 328 326 326 328 326 325 324 325 325 326 325 324 323 325 324
340 339 340 340 341 342 342 341 341 341 341 340 340 342 341 339 336 333 333 332 332 332 331 330 329 327 325 324 324 326 327 327 326 326 325 325 325 325 325 323 324 323 321
340 340 340 340 340 340 341 340 340 339 338 339 341 340 337 333 333 332 331 331 331 331 330 329 326 324 324 325 325 325 326 326 327 326 325 326 326 325 325 324 323 322 322
340 340 340 340 339 339 339 337 336 336 337 339 338 334 332 333 332 331 330 331 331 330 328 326 324 324 325 326 325 325 326 325 326 326 326 325 325 326 326 324 322 322 320
337 338 338 337 337 336 335 334 334 336 335 335 332 332 332 332 332 331 332 332 329 328 327 325 325 325 326 326 326 325 325 325 326 326 324 324 324 325 325 325 323 322 321
336 337 336 335 333 333 332 337 335 332 331 330 330 328 330 330 331 331 331 331 330 328 327 327 326 326 327 326 324 325 324 325 324 323 323 322 322 324 324 324 323 323 322
329 332 335 333 331 331 331 331 331 330 327 325 324 324 326 329 331 331 331 330 328 327 327 326 326 326 326 325 326 325 325 324 322 322 322 322 322 322 323 323 323 322 322
328 333 332 332 331 331 330 329 328 327 324 322 322 322 321 323 327 329 330 330 329 328 326 325 326 326 327 325 325 325 324 322 321 320 320 321 321 322 323 322 322 322 321
325 326 331 330 329 330 330 329 327 326 326 325 323 322 321 323 327 328 329 327 326 325 325 325 325 326 326 325 322 322 322 321 319 320 320 320 321 321 321 321 321 321 321
326 329 328 329 329 327 327 328 328 328 328 326 324 323 322 322 325 328 327 327 325 325 324 323 323 323 321 319 320 321 320 319 318 318 320 320 320 319 320 320 321 321 321
331 330 330 328 325 323 322 323 327 329 329 328 329 329 325 326 327 328 328 326 325 325 322 322 322 321 320 319 320 320 319 319 319 319 319 320 319 319 319 319 320 321 322
331 329 328 326 325 324 324 324 319 324 329 329 328 328 328 327 327 327 327 325 325 323 321 321 321 321 321 321 321 320 319 319 319 319 319 320 320 320 320 319 319 320 321
330 328 328 327 326 326 326 325 324 325 324 323 327 328 327 326 326 325 325 324 320 320 321 321 321 322 322 322 322 321 320 319 319 319 319 319 320 320 319 319 319 320 321
330 328 327 326 325 325 325 325 325 324 323 321 324 327 326 326 325 324 323 321 320 321 322 322 322 323 323 323 323 322 321 320 320 319 319 319 319 319 319 319 319 319 320
329 328 326 324 324 325 324 323 322 321 319 321 321 320 322 323 320 319 321 322 322 321 321 322 323 324 324 324 324 323 322 321 321 320 320 320 319 319 319 320 321 321 320
328 326 326 325 325 324 323 323 322 322 322 321 319 322 322 323 321 321 323 322 321 321 321 322 323 324 324 324 324 324 323 322 322 321 320 320 320 320 319 320 320 320 321
328 327 327 326 325 324 322 322 322 321 320 319 320 322 323 324 322 323 323 323 322 321 321 322 322 323 324 324 324 324 324 323 323 323 322 322 321 321 321 321 321 321 320
328 328 327 326 325 323 321 321 321 320 319 319 320 321 321 322 323 323 323 323 322 322 322 322 322 322 322 323 323 324 323 323 323 323 323 323 323 323 323 322 321 322 322
329 329 327 325 324 324 322 321 320 319 319 318 318 320 321 321 320 319 319 319 320 320 320 319 319 319 320 321 322 323 323 323 323 323 324 324 324 324 324 324 322 322 322
329 329 327 325 325 324 322 321 320 319 317 317 318 318 318 316 315 314 313 313 313 315 314 315 315 315 317 318 320 321 321 323 323 322 322 322 321 323 324 323 323 320 318
329 328 326 326 325 324 323 322 321 319 317 314 315 315 312 309 307 306 305 306 307 307 308 308 307 309 311 312 314 317 320 321 321 321 319 318 317 315 314 312 310 308 306
Wind_Speed
30 36 34 34 37 38 38 40 35 28 28 29 29 29 27 25 23 21 23 20 20 18 15 14 12 11 11 11 10 9 9 9 3 2 1 3 7 10 8 7 6 12 14
31 34 34 35 35 34 38 37 29 30 31 28 28 30 29 27 23 24 23 21 19 17 16 14 14 11 11 11 12 11 10 11 6 5 4 5 7 10 9 10 9 9 11
28 34 34 32 32 35 35 30 30 33 28 27 29 33 31 27 27 25 22 20 18 17 16 16 13 12 12 11 11 10 10 10 11 6 6 7 5 12 11 11 9 9 9
31 32 29 31 33 33 33 33 34 30 30 29 31 33 32 30 29 24 20 18 17 16 16 14 11 13 12 12 10 10 11 11 12 9 7 9 8 11 13 15 11 10 10
28 28 29 32 35 33 33 33 29 29 30 30 32 33 32 30 28 24 20 19 19 18 15 11 11 11 10 10 10 10 11 12 12 11 11 7 8 13 13 12 15 13 11
21 23 26 30 30 30 26 28 28 28 28 30 34 34 32 29 26 23 20 20 21 18 15 12 11 10 9 9 9 9 11 14 16 13 10 12 11 11 16 21 19 11 4
17 19 26 27 24 25 26 27 27 29 31 32 34 34 30 28 24 21 21 20 19 16 15 12 11 11 9 8 6 6 8 8 13 21 20 15 15 20 21 20 13 9 6
15 15 21 24 24 25 26 26 27 32 33 34 34 32 30 25 23 22 20 18 15 15 13 11 11 11 9 7 7 8 10 8 7 11 13 16 18 22 22 21 20 15 15
11 12 17 23 24 26 26 27 30 32 32 35 33 31 26 24 24 21 18 15 15 15 11 10 10 9 7 8 9 12 11 10 7 7 7 9 13 17 22 21 20 17 6
3 11 16 21 26 26 26 29 28 33 33 33 28 25 24 22 22 20 18 17 17 14 11 10 9 7 7 8 9 12 14 11 9 8 8 10 10 13 19 19 27 17 11
12 13 18 21 25 30 29 37 34 33 32 29 25 20 20 19 21 18 16 17 16 15 11 9 7 7 8 8 7 11 15 14 12 11 11 12 14 18 18 16 21 23 19
3 6 18 22 24 27 35 30 31 31 28 25 26 21 17 17 17 16 13 10 11 12 12 9 7 9 11 9 7 8 11 14 13 11 13 13 14 17 17 15 15 17 16
8 7 16 20 25 30 30 28 25 27 24 19 16 16 15 14 15 15 13 10 9 9 11 9 10 10 12 11 8 9 12 13 12 13 13 13 14 15 16 13 13 12 11
10 13 13 18 22 25 27 28 25 22 19 18 15 14 16 15 15 16 14 14 12 11 12 12 11 12 14 13 13 12 11 10 10 13 13 12 12 12 15 16 15 14 11
8 15 11 18 22 24 22 17 24 24 26 21 18 20 20 16 18 19 19 17 15 15 15 15 14 16 17 19 16 14 11 10 11 11 13 12 11 12 15 15 15 15 9
20 24 26 22 21 25 24 20 20 21 20 20 20 22 19 15 18 19 18 16 14 16 15 15 14 16 19 18 18 15 13 11 10 12 11 12 12 12 14 12 14 12 8
20 22 23 24 20 20 17 19 15 16 16 14 16 15 14 14 19 18 17 14 13 15 12 15 14 16 18 18 19 17 14 12 11 11 12 12 11 11 12 12 12 13 7
22 23 23 22 20 19 17 17 18 17 14 16 16 14 13 17 20 18 17 15 15 10 12 15 15 17 19 18 19 16 14 13 12 11 11 11 11 12 12 13 12 15 12
25 20 19 20 20 22 22 21 20 17 15 18 16 15 14 18 17 17 17 15 14 11 11 15 15 17 19 20 18 15 15 15 12 12 11 11 11 13 13 12 12 11 11
20 24 22 20 23 22 21 20 17 14 16 13 16 19 21 22 18 19 12 10 11 9 10 12 14 17 16 18 16 14 12 12 11 9 9 10 10 13 12 10 8 7 10
23 24 25 21 21 20 20 17 16 16 15 15 18 19 19 20 17 15 12 10 9 10 11 12 12 12 13 16 14 12 11 11 11 10 10 9 10 10 12 10 10 9 9
23 24 19 22 21 20 19 18 18 18 17 19 20 17 14 15 15 13 10 8 6 6 8 10 11 11 12 12 17 13 11 9 8 7 8 9 10 12 11 10 9 9 12
23 21 20 19 19 25 21 19 20 19 18 20 21 18 15 15 16 11 11 10 10 12 10 11 12 12 11 11 12 12 8 7 8 7 6 7 10 11 12 14 15 15 14
21 22 21 21 21 19 20 18 19 20 20 19 19 18 17 18 15 14 13 12 13 15 15 14 14 13 11 11 9 9 8 8 7 7 7 9 9 11 11 12 12 13 10
22 20 19 23 22 20 22 20 18 19 19 20 19 20 19 17 17 15 16 17 19 19 18 16 15 14 12 11 9 7 6 5 4 2 1 2 4 4 6 6 4 2 3
24 22 19 20 22 22 22 21 19 19 19 20 25 22 20 18 18 19 19 20 22 22 22 21 20 18 17 17 14 11 10 9 9 8 10 12 14 15 14 14 13 13 13
Wind_Direction
262 245 234 228 225 220 217 218 208 206 211 204 201 196 195 195 199 194 198 183 179 183 197 205 208 208 206 209 209 206 214 214 192 143 196 136 135 154 171 180 166 184 186
257 233 225 224 218 210 212 211 202 207 207 199 199 195 193 192 190 188 182 176 179 191 195 195 201 200 204 208 212 212 224 217 201 162 182 162 154 147 134 147 146 158 175
239 215 212 207 199 197 202 199 202 204 197 197 197 195 189 189 184 186 181 180 191 196 194 200 199 198 206 204 208 218 226 222 214 163 156 173 154 165 143 120 119 130 146
216 202 194 192 196 197 195 197 199 194 192 194 194 190 189 186 182 180 179 184 189 192 198 202 202 209 212 210 215 225 225 215 211 192 164 164 158 169 169 132 110 114 112
198 185 186 187 188 187 187 187 184 186 190 190 181 184 186 182 180 177 183 187 189 190 193 200 210 211 211 214 215 217 217 208 202 181 155 157 161 154 159 150 137 132 120
171 175 169 173 170 167 165 162 170 171 178 177 179 181 180 177 179 184 189 189 191 189 187 197 205 201 194 195 208 226 232 217 202 174 169 166 173 164 155 155 146 147 125
139 155 152 152 153 151 151 154 160 164 169 171 173 176 171 177 182 186 189 190 190 190 193 193 188 186 188 194 210 223 211 215 227 203 181 178 170 183 170 163 162 153 135
128 143 139 144 140 143 149 155 159 164 165 166 167 166 171 176 179 182 188 188 190 193 194 195 194 192 197 210 208 203 196 188 197 209 212 212 204 191 185 179 172 147 144
115 128 139 142 141 146 152 154 156 156 157 158 164 168 171 173 180 186 186 184 186 187 190 190 193 198 213 223 216 195 191 195 207 183 217 212 214 201 188 174 162 148 135
67 136 146 149 147 150 151 150 150 153 151 159 162 167 173 172 182 185 181 183 177 177 182 187 198 214 225 207 199 204 201 197 188 184 176 175 195 201 198 195 175 162 140
76 147 153 151 147 147 144 149 153 148 152 154 154 159 164 169 167 173 179 183 187 179 189 191 200 213 197 187 213 208 209 191 176 159 151 157 171 179 187 193 189 185 165
4 93 146 148 142 144 140 142 149 146 141 137 137 136 146 151 160 164 178 189 193 190 187 183 177 160 165 171 160 174 179 172 156 159 160 164 171 183 187 189 194 202 202
42 70 139 144 149 143 137 136 133 141 132 129 133 131 140 148 157 167 169 169 169 164 174 172 161 161 161 161 160 161 158 158 163 166 173 180 186 189 187 185 190 198 200
56 85 128 140 134 136 138 142 137 136 136 138 134 135 145 149 158 167 166 163 161 165 165 158 158 159 156 158 150 158 162 167 173 175 178 183 186 188 185 188 170 174 164
280 135 147 146 129 123 125 136 145 154 159 150 156 153 152 168 180 176 173 171 167 163 153 145 152 155 150 153 155 154 155 157 165 174 175 173 174 177 178 180 176 173 174
123 136 160 139 136 136 133 116 144 157 165 173 176 174 173 179 174 175 177 175 170 164 152 159 165 163 157 160 160 163 164 161 168 171 173 172 168 170 169 167 172 165 170
145 146 141 139 143 139 138 135 115 120 150 157 172 175 169 164 167 167 169 168 167 165 164 172 180 173 173 169 174 173 171 170 168 176 172 173 173 172 175 175 180 183 164
133 140 141 144 144 143 142 137 137 136 130 140 158 157 162 161 162 165 163 158 159 179 185 177 176 184 179 178 181 178 170 171 176 179 182 179 179 179 178 184 192 196 195
140 136 135 135 138 140 142 140 141 136 138 144 141 148 155 161 160 162 166 168 173 182 189 185 185 187 184 186 185 183 183 179 178 180 183 190 191 186 189 191 190 186 191
129 132 134 131 130 129 134 131 128 129 136 138 142 143 146 149 151 159 168 167 172 179 178 184 185 187 191 190 189 186 182 185 186 188 187 192 197 199 199 195 189 201 212
128 132 138 129 129 134 133 131 131 128 124 123 138 146 153 156 152 151 157 156 167 169 166 172 177 178 188 198 189 189 192 188 193 198 201 203 202 202 211 214 222 225 228
136 141 141 133 136 138 132 127 124 123 123 125 133 135 145 151 153 147 138 138 147 158 165 169 169 177 187 194 190 184 189 194 199 209 213 218 224 226 224 223 225 225 225
138 137 132 133 136 134 126 127 128 130 127 132 143 140 142 146 148 135 124 131 125 148 144 147 149 153 155 155 172 177 183 199 215 228 235 234 232 230 230 229 226 227 226
145 139 140 134 133 131 129 129 130 133 131 135 142 138 136 138 131 125 124 123 120 122 127 130 129 127 127 136 155 176 198 207 215 229 240 240 241 247 243 239 235 234 240
139 137 139 136 136 134 135 134 128 127 132 141 140 141 137 129 127 126 126 126 123 123 121 121 117 117 119 120 126 129 144 152 140 117 76 212 234 247 247 244 240 139 115
142 144 141 139 139 141 138 135 134 131 133 135 146 141 137 130 125 125 125 125 123 117 113 108 105 105 105 104 106 110 107 100 97 94 101 104 101 96 96 95 94 86 75